Location: Cassagne
(43.1218°N, 0.9901°E)
Time: 15:38:30
(UTC+00:00)

H-2A R/B - Pass Details

Date: 17 February 2020
Orbit: 530 x 652 km, 98.3° (Epoch: 27 March)

Event Time Altitude Azimuth Distance (km) Brightness Sun altitude
Rises 05:16:56 0° 5° (N) 2,896 6.1 -17.9°
Reaches altitude 10° 05:19:13 10° 357° (N) 2,004 5.1 -17.5°
Maximum altitude 05:23:14 37° 290° (WNW) 992 3.1 -16.8°
Enters shadow 05:24:54 27° 247° (WSW) 1,232 3.6 -16.5°
